Location: Burleson Alternative School
(32.5290°N, 97.3406°W)
Time: 10:59:50
(UTC+00:00)

Vanguard 2 Rocket - Pass Details

Date: 11 November 2025
Orbit: 553 x 3287 km, 32.9° (Epoch: 07 December)

Event Time Altitude Azimuth Distance (km) Brightness Sun altitude
Exits shadow 08:51:55 20° 176° (S) 4,892 10.4 -51.4°
Drops below altitude 10° 08:58:05 10° 161° (SSE) 6,021 11.1 -50.1°
Sets 09:04:18 0° 151° (SSE) 7,213 11.6 -48.8°
